^^
Your Local Weather - Clay, NY Station Historical Data
Daily Summary for April 13, 2017 Units:  English    Metric   Both
« Previous Day
Next Day »
Daily Weekly Monthly Yearly Custom
  High: Low: Average:
Temperature: 52.1 °F 33.8 °F 43.4 °F
Dew Point: 35.1 °F 17.9 °F 28.7 °F
Humidity: 82% 27% 59%
Wind Speed: 6.0mph 0.0mph 2.2mph
Wind Gust: 9.0mph - -
Wind- - WNW
Pressure: 30.45 in 30.35 in -
Precipitation: 0.00 in    
Historical Graphs
 
 
Tabular Data for April 13, 2017
Time Temperature Dew Point Pressure Wind Wind Speed Wind Gust Humidity Rainfall Rate (Hourly) solar
00:04 40.8 °F 33.2 °F 30.35 in WNW 5.0 mph 6.0 mph 74% 0.00 in 0 W/m2
00:10 40.7 °F 32.7 °F 30.35 in NW 4.0 mph 4.0 mph 73% 0.00 in 0 W/m2
00:16 40.6 °F 32.6 °F 30.35 in NW 5.0 mph 5.0 mph 73% 0.00 in 0 W/m2
00:22 40.4 °F 32.1 °F 30.35 in NW 5.0 mph 6.0 mph 72% 0.00 in 0 W/m2
00:28 40.3 °F 32.0 °F 30.35 in WNW 4.0 mph 6.0 mph 72% 0.00 in 0 W/m2
00:34 40.2 °F 31.5 °F 30.35 in NW 4.0 mph 5.0 mph 71% 0.00 in 0 W/m2
00:40 40.1 °F 31.1 °F 30.35 in WNW 5.0 mph 5.0 mph 70% 0.00 in 0 W/m2
00:46 40.0 °F 31.0 °F 30.35 in NW 4.0 mph 5.0 mph 70% 0.00 in 0 W/m2
00:52 39.9 °F 30.9 °F 30.35 in NNW 3.0 mph 5.0 mph 70% 0.00 in 0 W/m2
00:58 39.8 °F 30.5 °F 30.35 in WNW 3.0 mph 5.0 mph 69% 0.00 in 0 W/m2
01:04 39.9 °F 30.5 °F 30.35 in NW 3.0 mph 5.0 mph 69% 0.00 in 0 W/m2
01:10 39.8 °F 30.5 °F 30.35 in West 3.0 mph 3.0 mph 69% 0.00 in 0 W/m2
01:16 39.8 °F 30.5 °F 30.35 in WNW 4.0 mph 4.0 mph 69% 0.00 in 0 W/m2
01:22 39.8 °F 30.5 °F 30.35 in WNW 3.0 mph 4.0 mph 69% 0.00 in 0 W/m2
01:28 39.7 °F 30.4 °F 30.35 in WNW 2.0 mph 4.0 mph 69% 0.00 in 0 W/m2
01:33 39.7 °F 30.0 °F 30.35 in WSW 2.0 mph 5.0 mph 68% 0.00 in 0 W/m2
01:40 39.7 °F 30.4 °F 30.35 in WNW 3.0 mph 4.0 mph 69% 0.00 in 0 W/m2
01:48 39.6 °F 30.3 °F 30.35 in NW 3.0 mph 4.0 mph 69% 0.00 in 0 W/m2
01:53 39.6 °F 29.9 °F 30.35 in WNW 3.0 mph 5.0 mph 68% 0.00 in 0 W/m2
01:59 39.7 °F 30.0 °F 30.35 in WNW 3.0 mph 3.0 mph 68% 0.00 in 0 W/m2
02:06 39.5 °F 29.8 °F 30.35 in WNW 3.0 mph 7.0 mph 68% 0.00 in 0 W/m2
02:12 39.2 °F 29.9 °F 30.35 in WNW 3.0 mph 6.0 mph 69% 0.00 in 0 W/m2
02:18 39.0 °F 30.0 °F 30.35 in WNW 3.0 mph 6.0 mph 70% 0.00 in 0 W/m2
02:23 38.8 °F 29.8 °F 30.35 in NNW 3.0 mph 4.0 mph 70% 0.00 in 0 W/m2
02:29 38.6 °F 29.7 °F 30.35 in West 3.0 mph 3.0 mph 70% 0.00 in 0 W/m2
02:36 38.4 °F 29.8 °F 30.35 in NW 2.0 mph 3.0 mph 71% 0.00 in 0 W/m2
02:42 38.3 °F 29.7 °F 30.35 in West 2.0 mph 2.0 mph 71% 0.00 in 0 W/m2
02:48 38.1 °F 29.9 °F 30.35 in WNW 2.0 mph 4.0 mph 72% 0.00 in 0 W/m2
02:54 38.0 °F 29.8 °F 30.35 in WNW 2.0 mph 4.0 mph 72% 0.00 in 0 W/m2
03:00 37.8 °F 29.9 °F 30.36 in WNW 2.0 mph 2.0 mph 73% 0.00 in 0 W/m2
03:06 37.6 °F 29.7 °F 30.36 in WNW 1.0 mph 2.0 mph 73% 0.00 in 0 W/m2
03:12 37.5 °F 29.6 °F 30.36 in WNW 1.0 mph 3.0 mph 73% 0.00 in 0 W/m2
03:18 37.4 °F 29.9 °F 30.35 in WNW 1.0 mph 3.0 mph 74% 0.00 in 0 W/m2
03:24 37.3 °F 29.8 °F 30.35 in Calm   1.0 mph 74% 0.00 in 0 W/m2
03:29 37.2 °F 29.7 °F 30.35 in WNW 1.0 mph 1.0 mph 74% 0.00 in 0 W/m2
03:36 37.1 °F 29.9 °F 30.35 in WNW 1.0 mph 2.0 mph 75% 0.00 in 0 W/m2
03:42 37.0 °F 29.8 °F 30.35 in Calm   3.0 mph 75% 0.00 in 0 W/m2
03:48 36.9 °F 29.7 °F 30.35 in Calm   3.0 mph 75% 0.00 in 0 W/m2
03:54 36.8 °F 29.6 °F 30.36 in WSW 1.0 mph 1.0 mph 75% 0.00 in 0 W/m2
04:00 36.9 °F 29.7 °F 30.36 in WSW 1.0 mph 1.0 mph 75% 0.00 in 0 W/m2
04:06 36.9 °F 30.0 °F 30.36 in WSW 1.0 mph 1.0 mph 76% 0.00 in 0 W/m2
04:12 36.9 °F 30.0 °F 30.36 in West 1.0 mph 4.0 mph 76% 0.00 in 0 W/m2
04:18 36.9 °F 30.0 °F 30.36 in West 1.0 mph 4.0 mph 76% 0.00 in 0 W/m2
04:24 36.9 °F 30.0 °F 30.36 in West 1.0 mph 4.0 mph 76% 0.00 in 0 W/m2
04:30 36.9 °F 30.0 °F 30.37 in WNW 2.0 mph 2.0 mph 76% 0.00 in 0 W/m2
04:36 36.9 °F 30.0 °F 30.37 in WNW 2.0 mph 3.0 mph 76% 0.00 in 0 W/m2
04:42 36.8 °F 29.9 °F 30.37 in WNW 2.0 mph 2.0 mph 76% 0.00 in 0 W/m2
04:48 36.7 °F 30.2 °F 30.37 in WNW 1.0 mph 2.0 mph 77% 0.00 in 0 W/m2
04:54 36.6 °F 30.1 °F 30.37 in WNW 1.0 mph 2.0 mph 77% 0.00 in 0 W/m2
05:00 36.6 °F 30.1 °F 30.38 in WNW 1.0 mph 1.0 mph 77% 0.00 in 0 W/m2
05:06 36.7 °F 30.5 °F 30.38 in WNW 1.0 mph 3.0 mph 78% 0.00 in 0 W/m2
05:12 37.0 °F 30.5 °F 30.38 in West 2.0 mph 2.0 mph 77% 0.00 in 0 W/m2
05:18 37.2 °F 31.0 °F 30.39 in West 1.0 mph 2.0 mph 78% 0.00 in 0 W/m2
05:24 37.3 °F 31.1 °F 30.39 in West 1.0 mph 4.0 mph 78% 0.00 in 0 W/m2
05:30 37.5 °F 30.9 °F 30.39 in WNW 2.0 mph 2.0 mph 77% 0.00 in 0 W/m2
05:35 37.6 °F 31.0 °F 30.39 in WNW 1.0 mph 2.0 mph 77% 0.00 in 0 W/m2
05:42 37.7 °F 31.1 °F 30.39 in WNW 1.0 mph 3.0 mph 77% 0.00 in 0 W/m2
05:48 37.8 °F 31.2 °F 30.39 in West 2.0 mph 4.0 mph 77% 0.00 in 0 W/m2
05:54 37.8 °F 31.6 °F 30.39 in West 2.0 mph 2.0 mph 78% 0.00 in 0 W/m2
06:00 37.8 °F 31.6 °F 30.39 in WNW 2.0 mph 2.0 mph 78% 0.00 in 0 W/m2
06:06 37.7 °F 31.5 °F 30.39 in WNW 1.0 mph 3.0 mph 78% 0.00 in 0 W/m2
06:12 37.6 °F 31.4 °F 30.39 in WNW 1.0 mph 2.0 mph 78% 0.00 in 0 W/m2
06:18 37.3 °F 31.1 °F 30.39 in WNW 1.0 mph 2.0 mph 78% 0.00 in 0 W/m2
06:24 37.0 °F 31.1 °F 30.39 in NW 1.0 mph 3.0 mph 79% 0.00 in 0 W/m2
06:30 36.8 °F 31.2 °F 30.40 in NW 1.0 mph 3.0 mph 80% 0.00 in 5 W/m2
06:36 36.7 °F 31.1 °F 30.40 in NW 1.0 mph 3.0 mph 80% 0.00 in 9 W/m2
06:42 36.6 °F 31.3 °F 30.40 in Calm   1.0 mph 81% 0.00 in 14 W/m2
06:45 36.5 °F 31.2 °F 30.40 in Calm   1.0 mph 81% 0.00 in 18 W/m2
06:52 36.5 °F 31.2 °F 30.40 in NW 1.0 mph 1.0 mph 81% 0.00 in 23 W/m2
06:58 36.4 °F 31.1 °F 30.41 in NW 1.0 mph 2.0 mph 81% 0.00 in 28 W/m2
07:04 36.5 °F 31.2 °F 30.42 in WSW 1.0 mph 2.0 mph 81% 0.00 in 35 W/m2
07:10 36.6 °F 31.6 °F 30.42 in WSW 1.0 mph 3.0 mph 82% 0.00 in 44 W/m2
07:16 36.7 °F 31.4 °F 30.42 in WSW 1.0 mph 3.0 mph 81% 0.00 in 44 W/m2
07:22 37.0 °F 31.7 °F 30.42 in WNW 1.0 mph 2.0 mph 81% 0.00 in 46 W/m2
07:28 37.1 °F 31.8 °F 30.42 in WNW 2.0 mph 3.0 mph 81% 0.00 in 49 W/m2
07:33 37.3 °F 32.0 °F 30.42 in WNW 1.0 mph 3.0 mph 81% 0.00 in 84 W/m2
07:40 37.6 °F 32.0 °F 30.43 in WNW 1.0 mph 1.0 mph 80% 0.00 in 156 W/m2
07:46 38.0 °F 32.4 °F 30.43 in WNW 1.0 mph 1.0 mph 80% 0.00 in 174 W/m2
07:52 38.5 °F 32.6 °F 30.43 in WNW 1.0 mph 3.0 mph 79% 0.00 in 178 W/m2
07:58 38.8 °F 32.5 °F 30.43 in West 2.0 mph 4.0 mph 78% 0.00 in 236 W/m2
08:04 39.1 °F 32.8 °F 30.43 in WNW 2.0 mph 3.0 mph 78% 0.00 in 225 W/m2
08:10 39.6 °F 33.0 °F 30.43 in NW 3.0 mph 4.0 mph 77% 0.00 in 272 W/m2
08:16 39.7 °F 32.8 °F 30.43 in West 4.0 mph 4.0 mph 76% 0.00 in 197 W/m2
08:22 39.7 °F 32.8 °F 30.43 in WNW 3.0 mph 4.0 mph 76% 0.00 in 165 W/m2
08:28 40.0 °F 32.7 °F 30.43 in WNW 3.0 mph 4.0 mph 75% 0.00 in 265 W/m2
08:34 40.3 °F 32.7 °F 30.44 in WNW 3.0 mph 3.0 mph 74% 0.00 in 206 W/m2
08:39 40.4 °F 32.8 °F 30.44 in NW 2.0 mph 2.0 mph 74% 0.00 in 258 W/m2
08:46 41.0 °F 33.3 °F 30.44 in NW 2.0 mph 4.0 mph 74% 0.00 in 287 W/m2
08:52 41.4 °F 33.0 °F 30.44 in West 2.0 mph 3.0 mph 72% 0.00 in 285 W/m2
08:58 41.7 °F 33.7 °F 30.44 in WNW 3.0 mph 3.0 mph 73% 0.00 in 260 W/m2
09:04 42.1 °F 33.4 °F 30.44 in NW 2.0 mph 4.0 mph 71% 0.00 in 264 W/m2
09:10 42.4 °F 33.3 °F 30.44 in WNW 3.0 mph 6.0 mph 70% 0.00 in 406 W/m2
09:16 42.5 °F 33.4 °F 30.44 in WNW 3.0 mph 6.0 mph 70% 0.00 in 374 W/m2
09:22 42.8 °F 33.0 °F 30.44 in WNW 3.0 mph 5.0 mph 68% 0.00 in 459 W/m2
09:28 43.5 °F 33.6 °F 30.44 in WNW 3.0 mph 5.0 mph 68% 0.00 in 534 W/m2
09:35 43.7 °F 32.7 °F 30.45 in NW 3.0 mph 4.0 mph 65% 0.00 in 281 W/m2
09:42 43.4 °F 33.5 °F 30.45 in WNW 3.0 mph 3.0 mph 68% 0.00 in 262 W/m2
09:48 43.4 °F 32.4 °F 30.45 in West 3.0 mph 6.0 mph 65% 0.00 in 663 W/m2
09:54 45.4 °F 33.9 °F 30.43 in NNW 3.0 mph 4.0 mph 64% 0.00 in 642 W/m2
10:00 45.8 °F 33.5 °F 30.44 in WNW 2.0 mph 2.0 mph 62% 0.00 in 297 W/m2
10:06 44.6 °F 32.8 °F 30.45 in WNW 3.0 mph 4.0 mph 63% 0.00 in 167 W/m2
10:12 45.1 °F 32.0 °F 30.44 in North 4.0 mph 5.0 mph 60% 0.00 in 694 W/m2
10:18 46.6 °F 35.1 °F 30.44 in NW 4.0 mph 5.0 mph 64% 0.00 in 729 W/m2
10:24 46.6 °F 33.0 °F 30.44 in NNW 3.0 mph 4.0 mph 59% 0.00 in 715 W/m2
10:30 46.7 °F 33.1 °F 30.43 in NNW 3.0 mph 4.0 mph 59% 0.00 in 715 W/m2
10:36 46.7 °F 33.5 °F 30.44 in NNW 3.0 mph 5.0 mph 60% 0.00 in 710 W/m2
10:42 46.8 °F 34.9 °F 30.43 in NW 4.0 mph 4.0 mph 63% 0.00 in 759 W/m2
10:48 47.2 °F 33.2 °F 30.43 in NW 2.0 mph 5.0 mph 58% 0.00 in 142 W/m2
10:53 46.7 °F 31.4 °F 30.44 in NNW 3.0 mph 7.0 mph 55% 0.00 in 747 W/m2
11:00 47.9 °F 34.7 °F 30.44 in WNW 3.0 mph 5.0 mph 60% 0.00 in 761 W/m2
11:06 47.8 °F 31.9 °F 30.45 in WNW 3.0 mph 5.0 mph 54% 0.00 in 773 W/m2
11:12 47.9 °F 33.4 °F 30.45 in NW 3.0 mph 6.0 mph 57% 0.00 in 786 W/m2
11:18 48.1 °F 33.1 °F 30.45 in NNW 4.0 mph 6.0 mph 56% 0.00 in 796 W/m2
11:24 49.2 °F 33.3 °F 30.45 in North 4.0 mph 5.0 mph 54% 0.00 in 800 W/m2
11:30 48.7 °F 32.8 °F 30.45 in West 3.0 mph 5.0 mph 54% 0.00 in 819 W/m2
11:36 50.1 °F 34.5 °F 30.45 in WNW 3.0 mph 5.0 mph 55% 0.00 in 819 W/m2
11:42 49.2 °F 34.2 °F 30.44 in NNW 4.0 mph 5.0 mph 56% 0.00 in 861 W/m2
11:48 49.0 °F 32.1 °F 30.44 in West 5.0 mph 7.0 mph 52% 0.00 in 854 W/m2
11:54 49.5 °F 34.4 °F 30.44 in NNW 5.0 mph 9.0 mph 56% 0.00 in 868 W/m2
12:00 49.9 °F 33.9 °F 30.43 in NW 4.0 mph 4.0 mph 54% 0.00 in 865 W/m2
12:05 49.9 °F 33.4 °F 30.43 in NW 3.0 mph 7.0 mph 53% 0.00 in 884 W/m2
12:12 48.8 °F 31.9 °F 30.43 in West 4.0 mph 4.0 mph 52% 0.00 in 693 W/m2
12:18 49.4 °F 33.0 °F 30.43 in WNW 4.0 mph 5.0 mph 53% 0.00 in 861 W/m2
12:23 49.7 °F 32.8 °F 30.42 in NW 4.0 mph 6.0 mph 52% 0.00 in 805 W/m2
12:30 49.9 °F 33.4 °F 30.43 in NW 4.0 mph 4.0 mph 53% 0.00 in 912 W/m2
12:36 50.1 °F 30.6 °F 30.42 in WNW 4.0 mph 5.0 mph 47% 0.00 in 896 W/m2
12:42 50.3 °F 32.8 °F 30.43 in NW 4.0 mph 5.0 mph 51% 0.00 in 912 W/m2
12:48 51.1 °F 32.1 °F 30.42 in WNW 5.0 mph 6.0 mph 48% 0.00 in 759 W/m2
12:54 51.2 °F 29.4 °F 30.43 in NW 4.0 mph 7.0 mph 43% 0.00 in 831 W/m2
13:00 50.8 °F 31.8 °F 30.43 in NW 5.0 mph 5.0 mph 48% 0.00 in 715 W/m2
13:05 50.5 °F 29.9 °F 30.42 in NW 4.0 mph 6.0 mph 45% 0.00 in 605 W/m2
13:12 50.3 °F 30.8 °F 30.42 in WNW 4.0 mph 7.0 mph 47% 0.00 in 429 W/m2
13:13 50.1 °F 29.0 °F 30.42 in West 4.0 mph 7.0 mph 44% 0.00 in 492 W/m2
13:20 49.5 °F 27.9 °F 30.42 in WNW 4.0 mph 4.0 mph 43% 0.00 in 408 W/m2
13:26 49.5 °F 29.6 °F 30.42 in WNW 4.0 mph 4.0 mph 46% 0.00 in 378 W/m2
13:32 49.4 °F 30.0 °F 30.42 in NW 4.0 mph 4.0 mph 47% 0.00 in 445 W/m2
13:38 50.6 °F 31.1 °F 30.43 in WNW 4.0 mph 4.0 mph 47% 0.00 in 828 W/m2
13:44 50.8 °F 29.6 °F 30.42 in West 4.0 mph 7.0 mph 44% 0.00 in 965 W/m2
13:50 51.2 °F 31.1 °F 30.43 in NW 6.0 mph 6.0 mph 46% 0.00 in 891 W/m2
13:56 50.9 °F 30.3 °F 30.42 in NW 5.0 mph 6.0 mph 45% 0.00 in 417 W/m2
14:02 51.0 °F 29.8 °F 30.42 in WNW 4.0 mph 4.0 mph 44% 0.00 in 626 W/m2
14:08 50.6 °F 30.0 °F 30.42 in NW 4.0 mph 8.0 mph 45% 0.00 in 856 W/m2
14:14 50.8 °F 30.2 °F 30.42 in NW 4.0 mph 7.0 mph 45% 0.00 in 796 W/m2
14:20 51.2 °F 28.9 °F 30.42 in WSW 4.0 mph 4.0 mph 42% 0.00 in 795 W/m2
14:26 51.8 °F 30.6 °F 30.42 in NW 4.0 mph 7.0 mph 44% 0.00 in 749 W/m2
14:32 52.1 °F 29.1 °F 30.42 in NNW 4.0 mph 4.0 mph 41% 0.00 in 752 W/m2
14:38 51.7 °F 27.5 °F 30.42 in NW 5.0 mph 8.0 mph 39% 0.00 in 476 W/m2
14:43 51.4 °F 27.2 °F 30.42 in WNW 4.0 mph 5.0 mph 39% 0.00 in 431 W/m2
14:50 51.2 °F 28.9 °F 30.42 in NW 3.0 mph 4.0 mph 42% 0.00 in 548 W/m2
14:56 51.0 °F 26.9 °F 30.41 in West 4.0 mph 5.0 mph 39% 0.00 in 566 W/m2
15:02 50.5 °F 28.2 °F 30.41 in WNW 4.0 mph 4.0 mph 42% 0.00 in 353 W/m2
15:08 50.3 °F 29.7 °F 30.41 in NW 4.0 mph 5.0 mph 45% 0.00 in 452 W/m2
15:14 50.3 °F 27.5 °F 30.40 in WNW 4.0 mph 5.0 mph 41% 0.00 in 369 W/m2
15:20 50.3 °F 26.9 °F 30.40 in West 4.0 mph 4.0 mph 40% 0.00 in 613 W/m2
15:26 50.8 °F 27.3 °F 30.40 in NNW 4.0 mph 8.0 mph 40% 0.00 in 355 W/m2
15:32 50.1 °F 26.7 °F 30.40 in NW 4.0 mph 5.0 mph 40% 0.00 in 355 W/m2
15:38 50.1 °F 24.8 °F 30.40 in NNW 4.0 mph 5.0 mph 37% 0.00 in 385 W/m2
15:44 50.1 °F 26.1 °F 30.40 in NW 4.0 mph 4.0 mph 39% 0.00 in 330 W/m2
15:50 50.1 °F 27.9 °F 30.40 in North 3.0 mph 7.0 mph 42% 0.00 in 457 W/m2
15:54 50.2 °F 27.4 °F 30.40 in NW 4.0 mph 7.0 mph 41% 0.00 in 541 W/m2
16:00 51.4 °F 27.9 °F 30.39 in WNW 4.0 mph 4.0 mph 40% 0.00 in 666 W/m2
16:06 51.1 °F 27.6 °F 30.40 in West 3.0 mph 4.0 mph 40% 0.00 in 417 W/m2
16:12 50.3 °F 26.3 °F 30.39 in NNE 5.0 mph 8.0 mph 39% 0.00 in 487 W/m2
16:18 50.9 °F 29.2 °F 30.39 in NW 4.0 mph 8.0 mph 43% 0.00 in 345 W/m2
16:24 50.9 °F 24.2 °F 30.39 in West 3.0 mph 6.0 mph 35% 0.00 in 515 W/m2
16:30 51.5 °F 26.1 °F 30.39 in NNW 3.0 mph 4.0 mph 37% 0.00 in 657 W/m2
16:36 51.0 °F 24.3 °F 30.39 in NW 4.0 mph 8.0 mph 35% 0.00 in 520 W/m2
16:42 50.9 °F 24.9 °F 30.39 in NW 5.0 mph 5.0 mph 36% 0.00 in 512 W/m2
16:48 51.9 °F 23.7 °F 30.39 in NNW 3.0 mph 8.0 mph 33% 0.00 in 508 W/m2
16:54 51.4 °F 21.0 °F 30.39 in NNW 4.0 mph 4.0 mph 30% 0.00 in 534 W/m2
17:00 51.4 °F 21.7 °F 30.39 in NNW 5.0 mph 5.0 mph 31% 0.00 in 466 W/m2
17:06 51.3 °F 23.8 °F 30.39 in NW 5.0 mph 6.0 mph 34% 0.00 in 490 W/m2
17:12 51.8 °F 22.1 °F 30.39 in NW 4.0 mph 4.0 mph 31% 0.00 in 466 W/m2
17:18 51.7 °F 23.5 °F 30.39 in NW 3.0 mph 7.0 mph 33% 0.00 in 438 W/m2
17:24 52.1 °F 21.6 °F 30.39 in NNW 3.0 mph 5.0 mph 30% 0.00 in 443 W/m2
17:29 51.8 °F 20.5 °F 30.39 in NNE 4.0 mph 4.0 mph 29% 0.00 in 415 W/m2
17:36 51.4 °F 20.2 °F 30.38 in NNW 4.0 mph 6.0 mph 29% 0.00 in 241 W/m2
17:42 50.6 °F 19.5 °F 30.38 in NNW 4.0 mph 6.0 mph 29% 0.00 in 330 W/m2
17:48 50.6 °F 20.3 °F 30.38 in NW 4.0 mph 6.0 mph 30% 0.00 in 334 W/m2
17:54 50.8 °F 19.6 °F 30.38 in West 3.0 mph 5.0 mph 29% 0.00 in 260 W/m2
18:00 50.8 °F 19.6 °F 30.37 in West 2.0 mph 2.0 mph 29% 0.00 in 218 W/m2
18:06 50.9 °F 21.3 °F 30.37 in WNW 3.0 mph 3.0 mph 31% 0.00 in 193 W/m2
18:12 51.4 °F 21.0 °F 30.37 in NNW 2.0 mph 4.0 mph 30% 0.00 in 174 W/m2
18:18 51.5 °F 18.6 °F 30.37 in WNW 2.0 mph 4.0 mph 27% 0.00 in 211 W/m2
18:23 51.6 °F 20.3 °F 30.37 in NW 2.0 mph 5.0 mph 29% 0.00 in 171 W/m2
18:30 51.1 °F 19.1 °F 30.37 in NW 3.0 mph 7.0 mph 28% 0.00 in 148 W/m2
18:36 50.7 °F 19.6 °F 30.37 in NW 3.0 mph 7.0 mph 29% 0.00 in 137 W/m2
18:42 50.7 °F 17.9 °F 30.37 in WNW 2.0 mph 3.0 mph 27% 0.00 in 104 W/m2
18:48 50.7 °F 19.6 °F 30.37 in WNW 1.0 mph 3.0 mph 29% 0.00 in 102 W/m2
18:54 50.8 °F 19.6 °F 30.37 in Calm   2.0 mph 29% 0.00 in 95 W/m2
18:59 50.7 °F 21.1 °F 30.37 in West 1.0 mph 1.0 mph 31% 0.00 in 79 W/m2
19:05 50.2 °F 20.7 °F 30.36 in Calm   1.0 mph 31% 0.00 in 25 W/m2
19:12 49.6 °F 21.6 °F 30.36 in Calm   1.0 mph 33% 0.00 in 21 W/m2
19:18 49.1 °F 20.5 °F 30.36 in Calm   1.0 mph 32% 0.00 in 18 W/m2
19:24 48.7 °F 20.1 °F 30.36 in Calm   1.0 mph 32% 0.00 in 16 W/m2
19:30 48.4 °F 19.9 °F 30.36 in Calm     32% 0.00 in 12 W/m2
19:35 48.1 °F 21.7 °F 30.36 in Calm     35% 0.00 in 9 W/m2
19:42 47.6 °F 19.9 °F 30.36 in Calm     33% 0.00 in 5 W/m2
19:48 47.1 °F 19.4 °F 30.36 in Calm     33% 0.00 in 0 W/m2
19:54 46.8 °F 23.1 °F 30.37 in Calm     39% 0.00 in 0 W/m2
20:00 46.0 °F 24.2 °F 30.37 in Calm     42% 0.00 in 0 W/m2
20:06 45.2 °F 24.0 °F 30.37 in Calm     43% 0.00 in 0 W/m2
20:12 44.5 °F 22.8 °F 30.37 in Calm     42% 0.00 in 0 W/m2
20:18 43.9 °F 23.9 °F 30.37 in Calm     45% 0.00 in 0 W/m2
20:23 43.5 °F 24.6 °F 30.37 in Calm     47% 0.00 in 0 W/m2
20:30 43.0 °F 24.1 °F 30.38 in Calm     47% 0.00 in 0 W/m2
20:36 42.5 °F 25.1 °F 30.38 in Calm     50% 0.00 in 0 W/m2
20:42 42.1 °F 25.7 °F 30.38 in Calm     52% 0.00 in 0 W/m2
20:48 41.7 °F 26.7 °F 30.39 in Calm     55% 0.00 in 0 W/m2
20:54 41.3 °F 25.0 °F 30.39 in Calm     52% 0.00 in 0 W/m2
21:00 40.8 °F 23.1 °F 30.39 in Calm     49% 0.00 in 0 W/m2
21:06 40.5 °F 22.8 °F 30.39 in Calm     49% 0.00 in 0 W/m2
21:12 40.1 °F 24.8 °F 30.39 in Calm     54% 0.00 in 0 W/m2
21:18 39.5 °F 25.9 °F 30.39 in Calm     58% 0.00 in 0 W/m2
21:24 39.0 °F 25.9 °F 30.39 in Calm     59% 0.00 in 0 W/m2
21:30 38.6 °F 26.3 °F 30.39 in Calm     61% 0.00 in 0 W/m2
21:36 38.4 °F 24.5 °F 30.39 in Calm     57% 0.00 in 0 W/m2
21:42 38.2 °F 24.7 °F 30.38 in Calm     58% 0.00 in 0 W/m2
21:48 37.7 °F 25.1 °F 30.38 in Calm     60% 0.00 in 0 W/m2
21:54 37.5 °F 25.3 °F 30.38 in Calm     61% 0.00 in 0 W/m2
22:00 37.2 °F 25.4 °F 30.38 in Calm     62% 0.00 in 0 W/m2
22:06 37.1 °F 27.5 °F 30.38 in Calm     68% 0.00 in 0 W/m2
22:12 37.0 °F 28.5 °F 30.38 in Calm     71% 0.00 in 0 W/m2
22:18 37.2 °F 29.3 °F 30.37 in Calm     73% 0.00 in 0 W/m2
22:24 37.1 °F 29.2 °F 30.37 in Calm     73% 0.00 in 0 W/m2
22:30 36.6 °F 28.8 °F 30.37 in Calm     73% 0.00 in 0 W/m2
22:36 36.1 °F 28.3 °F 30.37 in Calm     73% 0.00 in 0 W/m2
22:42 35.8 °F 28.0 °F 30.37 in Calm     73% 0.00 in 0 W/m2
22:48 35.8 °F 28.0 °F 30.37 in Calm     73% 0.00 in 0 W/m2
22:54 35.7 °F 27.6 °F 30.37 in Calm     72% 0.00 in 0 W/m2
23:00 35.5 °F 28.0 °F 30.37 in Calm     74% 0.00 in 0 W/m2
23:06 35.4 °F 27.9 °F 30.37 in Calm     74% 0.00 in 0 W/m2
23:12 35.3 °F 26.8 °F 30.37 in Calm     71% 0.00 in 0 W/m2
23:18 35.2 °F 27.1 °F 30.37 in Calm     72% 0.00 in 0 W/m2
23:24 35.2 °F 28.1 °F 30.37 in Calm     75% 0.00 in 0 W/m2
23:30 34.7 °F 27.6 °F 30.37 in Calm     75% 0.00 in 0 W/m2
23:35 34.3 °F 26.9 °F 30.37 in Calm     74% 0.00 in 0 W/m2
23:42 34.1 °F 26.3 °F 30.37 in Calm     73% 0.00 in 0 W/m2
23:48 34.0 °F 26.3 °F 30.37 in Calm     73% 0.00 in 0 W/m2
23:53 33.8 °F 26.1 °F 30.37 in Calm     73% 0.00 in 0 W/m2
Country Meadow, Clay, NY, USA
Compliments of Weather Underground - 2 mb